Simultaneous Nadir Overpasses (SNOs) Predictions

Prediction of SNOs between AURA and NPP Satellite Orbit:

Table of predicted SNOs for the next 14.0 days since TLE Epoch: 12/25/2021
Index Date (AURA) Time (AURA) Lat,Lon (AURA) SZA (AURA ) Date (NPP) Time (NPP) Lat,Lon (NPP) SZA (NPP ) Distance(km) Time Diff (sec)
1 12/27/2021 02:51:59 -79.50,-146.10 64.66 12/27/2021 02:51:49 -79.50,-146.21 64.63 2.20 10
2 12/27/2021 03:41:17 79.79, 23.67 114.93 12/27/2021 03:42:24 79.80, 23.75 114.87 1.67 67
3 12/29/2021 18:19:03 79.38, 161.30 115.44 12/29/2021 18:17:59 79.37, 161.27 115.49 0.71 64
4 12/29/2021 19:08:23 -79.65, -29.16 64.95 12/29/2021 19:08:36 -79.65, -29.12 64.97 0.71 13
5 01/01/2022 10:35:30 79.40, -82.67 115.27 01/01/2022 10:34:50 79.40, -82.78 115.32 2.34 40
6 01/01/2022 11:24:49 -79.71, 87.16 65.17 01/01/2022 11:25:26 -79.71, 87.13 65.19 0.85 37
7 01/04/2022 02:51:53 79.52, 34.04 114.91 01/04/2022 02:51:37 79.51, 33.95 114.94 2.04 16
8 01/04/2022 03:41:13 -79.79,-156.34 65.48 01/04/2022 03:42:14 -79.79,-156.35 65.53 0.44 61
9 01/06/2022 18:18:56 -79.45, -18.19 65.24 01/06/2022 18:17:46 -79.46, -18.04 65.21 3.14 70



Historial Predications of SNOs between AURA and NPP
